Temperature
14 14 14 14 14 14 15 15 14 14 15 15 15 15 15 16 16 16 16 16 16 16 16 16 16 16 15 15 15 15 15 15 15 15 15 15 15 14
13 13 13 14 14 14 14 14 14 14 14 15 15 15 15 15 15 15 15 15 15 15 15 15 15 15 15 15 15 15 15 15 14 14 14 14 14 14
13 13 13 13 14 14 14 14 14 14 14 14 14 15 15 15 15 15 15 15 15 15 15 15 15 15 15 15 15 14 14 14 14 14 14 14 14 14
13 13 13 13 13 13 13 14 14 14 14 14 14 14 14 14 14 15 15 15 15 15 15 14 14 14 14 14 14 14 14 14 14 14 13 13 13 13
12 13 13 13 13 13 13 13 13 14 14 14 14 14 14 14 14 14 14 14 14 14 14 14 14 14 14 14 14 14 13 13 13 13 13 13 13 13
12 12 12 13 13 13 13 13 13 13 13 13 13 13 13 13 13 13 13 14 14 13 13 13 13 13 13 13 13 13 13 13 13 13 13 13 12 12
12 12 12 13 13 13 13 13 13 13 13 13 13 13 13 13 13 13 13 13 13 13 13 13 13 13 13 13 13 13 12 12 12 12 12 12 12 12
12 12 12 12 13 13 13 13 13 13 13 13 13 13 13 13 13 13 13 13 12 12 12 12 12 12 12 12 12 12 12 12 12 12 12 12 11 11
12 12 12 12 12 12 12 12 12 13 13 13 13 13 13 13 13 13 13 13 13 12 12 12 11 11 11 12 12 11 11 11 11 11 11 11 11 11
12 12 12 12 12 12 12 12 12 12 12 13 13 13 13 13 13 13 13 12 12 12 12 11 11 11 11 11 11 11 11 11 11 11 11 11 11 11
11 12 12 12 12 12 12 12 12 12 12 12 12 12 13 13 13 12 12 12 11 11 11 11 11 11 10 10 10 10 10 10 10 10 10 10 10 10
11 11 12 12 12 12 12 12 12 12 12 12 12 12 12 12 12 12 12 12 12 11 11 11 11 10 10 10 10 10 10 10 10 10 10 10 10 9
11 11 11 12 12 12 12 12 12 12 12 12 12 12 12 12 12 12 12 12 12 11 11 11 11 10 10 10 9 9 9 9 9 9 10 10 9 9
11 11 11 11 12 12 12 12 12 11 11 11 11 11 11 11 11 11 11 12 11 11 11 11 11 11 10 10 9 9 9 9 9 9 9 9 9 9
11 11 11 11 11 11 11 11 11 11 11 11 11 11 11 11 11 11 11 11 11 11 11 11 11 10 10 10 10 9 9 9 9 8 8 8 8 8
11 11 11 11 11 11 11 11 11 11 11 11 11 11 11 11 11 11 11 11 11 10 10 10 10 10 10 10 10 9 9 9 9 8 8 8 8 8
11 11 11 11 11 11 11 11 11 11 11 11 11 11 11 10 10 10 10 10 10 10 10 10 10 10 10 9 9 9 9 9 8 8 8 8 8 8
11 11 10 11 11 11 11 11 11 11 11 11 10 10 10 10 10 10 10 10 10 10 10 10 10 9 9 9 9 9 9 9 8 8 8 8 8 8
11 10 10 10 11 11 11 11 10 10 10 10 10 10 10 10 10 10 10 10 10 10 10 9 9 9 9 10 9 9 9 8 8 8 8 8 8 8
11 10 11 11 11 11 11 11 10 10 10 10 10 10 10 10 10 10 9 9 9 9 9 9 9 9 9 10 9 9 9 8 8 8 8 8 8 8
11 11 11 11 11 11 11 11 10 10 10 10 10 10 10 9 9 9 9 9 9 9 9 9 9 9 8 8 8 8 8 8 8 8 8 8 7 8
11 11 11 11 11 11 11 10 10 10 10 10 10 10 9 9 9 9 9 9 9 9 9 9 9 8 8 8 9 8 8 8 8 8 8 8 7 8
11 11 11 11 11 11 11 10 10 10 10 10 10 10 9 9 9 9 9 9 9 9 8 8 8 8 8 8 8 8 8 7 7 7 8 8 8 7
Wind_Speed
5 6 6 5 5 5 6 6 6 5 6 6 4 5 6 6 7 9 9 13 13 12 12 12 11 11 11 9 9 9 8 8 9 9 8 8 7 7
4 5 5 5 5 5 5 6 6 6 5 4 4 4 5 5 7 7 7 11 12 12 12 11 11 11 11 10 9 8 8 8 8 9 8 7 7 7
4 5 6 6 5 4 4 5 5 5 5 3 2 3 5 6 6 7 7 8 9 11 11 11 11 11 10 10 10 9 8 8 8 8 8 7 7 7
4 5 6 5 6 5 4 5 5 6 6 5 3 4 4 6 7 7 6 7 7 10 11 10 11 10 10 9 9 9 9 9 8 8 7 7 7 7
4 5 5 5 6 5 5 5 5 5 5 5 4 3 3 4 6 7 6 5 6 9 10 10 11 11 10 9 9 8 9 9 8 8 7 6 6 6
3 4 4 5 5 5 5 6 5 6 6 5 5 5 4 4 6 6 6 5 5 6 7 8 10 10 9 9 9 9 9 9 8 8 8 7 6 6
2 2 2 2 2 3 3 4 5 6 6 6 6 5 5 6 7 6 6 6 4 4 5 5 6 6 6 8 9 9 10 9 9 8 8 8 8 7
2 1 1 2 2 3 2 2 4 6 7 6 5 7 7 7 6 7 8 7 4 4 5 4 4 4 4 6 8 10 10 10 10 9 9 9 9 9
2 1 0 0 2 2 3 5 4 5 5 6 7 7 7 7 8 9 8 7 5 6 6 4 3 4 4 8 10 10 10 10 10 10 10 11 10 9
2 2 1 1 1 1 2 2 2 2 3 5 5 5 6 6 8 8 8 7 6 5 4 3 3 3 4 7 9 10 10 10 10 11 11 10 10 10
4 4 3 3 4 3 0 2 1 1 3 4 4 5 6 7 8 7 8 8 5 4 3 3 4 3 3 4 7 9 10 10 10 10 9 9 9 9
4 4 6 6 5 5 1 2 3 3 4 5 6 6 7 9 9 8 8 8 5 4 4 4 5 4 3 3 4 6 7 9 9 9 9 9 8 6
4 4 5 7 6 6 3 3 3 2 4 5 5 5 5 5 5 5 5 5 6 3 6 6 5 4 4 4 4 4 5 6 7 7 9 8 6 3
3 4 5 7 6 6 5 6 4 2 4 4 5 4 4 4 4 5 5 4 3 4 8 7 4 5 5 5 4 5 4 5 5 5 7 9 7 4
3 5 4 4 2 4 5 3 1 3 4 4 4 4 4 5 5 5 6 6 7 7 7 6 5 6 5 4 5 6 5 4 5 5 5 6 6 6
1 2 2 2 2 3 2 2 2 3 3 4 4 4 4 4 5 5 5 5 5 5 4 5 6 6 4 4 5 6 6 5 6 6 5 5 5 5
2 1 1 1 1 2 2 2 2 3 3 3 4 4 4 4 4 4 4 5 4 5 5 3 4 4 2 4 5 6 6 5 6 6 6 5 5 6
4 2 2 2 1 2 2 2 2 3 3 3 4 4 5 5 4 4 4 4 5 5 5 5 5 4 3 1 0 5 5 5 6 6 6 6 6 6
5 4 4 3 3 3 3 3 3 3 3 3 4 4 4 4 5 5 5 5 5 5 5 5 5 5 6 5 4 3 5 5 6 6 6 6 6 5
6 6 5 5 4 4 4 4 4 4 5 5 5 5 5 5 5 5 5 6 5 5 5 5 5 5 4 3 3 4 6 6 6 6 6 5 5 2
7 7 6 6 6 6 5 5 5 5 6 6 6 6 6 6 6 6 5 6 5 6 6 5 4 2 1 1 3 4 6 5 4 4 5 5 6 6
8 8 7 7 7 7 7 7 7 7 7 7 7 7 7 7 7 7 7 7 7 6 6 5 5 5 5 5 5 5 5 6 5 6 7 7 5 5
10 9 9 8 8 8 8 9 9 8 8 8 8 7 8 7 7 7 8 7 7 7 6 6 6 6 6 5 5 5 6 6 6 6 8 12 14 13
Wind_Direction
233 228 224 223 220 214 209 204 204 213 218 211 202 206 205 204 178 193 193 181 187 190 190 190 190 192 194 193 196 199 198 193 192 192 198 201 203 206
231 229 225 221 218 215 209 209 215 221 219 203 203 198 199 197 184 196 186 163 176 180 181 181 183 184 185 183 184 188 188 188 190 192 191 195 202 202
236 230 225 220 216 212 210 211 216 216 216 202 190 192 198 194 176 182 179 174 170 170 174 176 176 175 175 178 178 180 179 179 183 187 190 191 193 191
245 243 235 222 220 217 215 216 216 216 215 201 193 193 203 189 180 177 171 172 162 159 163 166 166 165 164 164 165 167 166 167 168 171 177 181 185 184
247 243 238 229 228 219 219 217 214 212 207 198 195 194 196 182 176 169 163 154 148 145 148 152 153 154 152 154 155 155 155 153 154 158 163 164 165 165
266 249 240 232 232 228 222 215 207 204 202 197 191 191 188 181 176 167 159 152 145 137 129 135 139 141 141 142 146 146 144 143 144 148 150 147 150 155
305 279 252 244 249 243 235 218 208 205 201 202 197 193 190 185 185 173 163 147 139 142 132 130 131 134 139 141 142 143 142 139 137 137 138 139 140 142
325 285 228 200 199 214 230 236 227 211 205 203 205 198 194 189 180 171 161 160 155 152 142 132 133 127 119 125 131 137 139 140 140 139 134 131 132 134
354 2 4 207 234 215 191 199 207 217 223 216 210 203 192 185 178 177 175 169 152 150 140 129 132 122 109 110 121 129 133 137 137 133 131 128 125 128
31 35 47 67 54 319 217 206 207 215 211 209 206 199 191 183 180 175 157 134 114 129 137 131 135 117 108 108 114 119 124 129 132 132 130 130 130 128
35 35 33 57 43 351 233 150 128 90 84 107 120 134 135 143 151 151 151 152 145 144 145 136 144 130 121 126 124 127 130 133 135 135 136 135 138 141
32 42 54 42 27 1 68 118 119 107 115 116 120 133 141 143 153 167 167 165 150 149 165 153 153 151 145 145 149 152 145 141 141 142 145 146 157 171
31 35 47 42 35 28 23 80 86 98 118 118 117 121 128 136 150 156 163 170 164 150 164 162 164 171 158 149 161 166 162 158 161 159 156 156 164 201
32 34 47 43 43 41 54 67 72 101 116 119 118 119 124 126 129 130 128 123 127 141 158 164 164 173 163 159 160 165 168 171 175 174 169 166 167 167
41 47 40 42 63 88 78 64 108 119 120 119 117 112 113 121 122 117 111 102 96 113 146 161 159 169 178 174 164 165 172 180 185 183 177 180 182 181
65 106 122 56 84 87 113 100 89 91 112 122 124 125 128 136 141 143 141 139 127 120 119 140 158 168 179 171 170 173 175 175 180 186 185 189 195 194
320 255 205 171 144 131 124 111 128 141 134 139 144 145 146 146 147 153 163 168 165 158 146 130 124 129 147 170 176 179 178 179 179 186 192 201 205 207
282 248 233 218 199 183 174 164 167 163 159 161 160 159 162 161 159 164 177 178 170 164 160 156 154 154 157 126 270 189 187 187 183 186 202 215 218 209
251 247 241 233 221 210 204 200 193 182 178 178 174 173 171 171 172 173 177 177 173 169 166 172 186 196 202 199 181 229 202 185 186 195 209 223 232 221
239 243 240 235 230 224 218 211 203 196 194 192 189 187 185 186 184 183 184 184 179 176 175 184 198 210 228 226 177 179 208 200 200 208 211 221 233 238
236 236 236 233 228 225 221 217 212 208 205 202 198 197 196 197 196 193 187 173 191 190 191 192 178 188 203 185 194 191 183 203 243 235 221 221 229 232
239 236 232 230 225 222 218 214 215 213 210 210 207 204 204 204 202 200 196 191 198 200 194 171 156 183 207 220 223 201 185 184 201 236 255 255 249 247
236 235 231 225 223 220 218 217 217 216 213 212 208 206 207 207 209 207 203 203 201 196 189 183 184 197 212 219 225 222 211 207 209 214 226 226 234 249
Height
1491 1492 1494 1496 1497 1499 1501 1504 1507 1508 1509 1511 1513 1515 1518 1520 1522 1524 1526 1528 1530 1533 1534 1536 1538 1539 1541 1543 1544 1545 1547 1548 1549 1550 1551 1551 1551 1552
1488 1490 1491 1492 1494 1496 1497 1499 1502 1504 1506 1507 1509 1511 1514 1516 1518 1521 1523 1524 1527 1529 1531 1532 1534 1536 1537 1539 1540 1542 1543 1544 1546 1546 1547 1548 1548 1549
1486 1487 1489 1490 1491 1493 1494 1496 1498 1500 1502 1504 1505 1507 1509 1512 1514 1517 1519 1521 1523 1525 1527 1529 1531 1532 1534 1535 1537 1538 1539 1541 1542 1543 1544 1545 1545 1546
1484 1485 1486 1487 1488 1490 1491 1493 1495 1497 1499 1500 1501 1504 1506 1508 1510 1513 1515 1517 1519 1521 1524 1526 1528 1529 1531 1532 1533 1535 1536 1537 1538 1540 1541 1542 1542 1543
1481 1482 1483 1484 1485 1487 1488 1490 1491 1493 1495 1496 1498 1500 1502 1505 1507 1509 1511 1514 1516 1518 1520 1523 1524 1526 1528 1529 1530 1531 1533 1534 1535 1536 1537 1538 1539 1540
1479 1479 1480 1481 1483 1484 1485 1487 1488 1490 1491 1493 1494 1497 1499 1501 1503 1505 1508 1510 1513 1515 1517 1519 1521 1523 1525 1526 1527 1528 1529 1531 1532 1533 1534 1535 1536 1537
1477 1478 1478 1479 1480 1481 1483 1484 1485 1486 1488 1489 1491 1493 1495 1497 1500 1502 1504 1506 1509 1512 1514 1516 1518 1520 1522 1523 1525 1526 1527 1528 1529 1530 1531 1532 1533 1534
1477 1477 1477 1478 1478 1479 1480 1481 1482 1483 1485 1486 1488 1489 1491 1494 1496 1498 1501 1504 1506 1510 1512 1514 1516 1517 1519 1520 1522 1523 1525 1526 1527 1528 1529 1530 1531 1532
1477 1477 1476 1477 1477 1478 1478 1479 1480 1480 1482 1483 1484 1486 1488 1490 1493 1496 1498 1501 1504 1506 1509 1511 1514 1515 1517 1518 1519 1521 1523 1524 1525 1526 1528 1528 1529 1530
1477 1477 1476 1476 1476 1476 1477 1477 1478 1478 1478 1480 1481 1483 1485 1488 1490 1493 1496 1499 1502 1505 1507 1509 1511 1513 1515 1516 1518 1520 1521 1523 1524 1525 1526 1527 1527 1528
1478 1477 1477 1477 1476 1475 1476 1476 1476 1476 1476 1477 1479 1481 1483 1485 1488 1491 1494 1497 1499 1502 1505 1507 1510 1512 1514 1515 1517 1519 1520 1521 1522 1523 1524 1525 1526 1527
1479 1478 1477 1476 1476 1476 1476 1475 1475 1475 1476 1477 1478 1480 1482 1484 1486 1490 1492 1495 1497 1501 1503 1505 1508 1510 1513 1514 1516 1517 1519 1520 1521 1522 1523 1524 1525 1525
1480 1479 1478 1477 1477 1476 1476 1476 1476 1476 1477 1477 1478 1480 1482 1484 1486 1488 1491 1494 1496 1498 1501 1503 1506 1508 1510 1512 1514 1516 1517 1518 1520 1520 1521 1522 1523 1524
1482 1481 1480 1479 1478 1477 1477 1477 1477 1478 1478 1479 1480 1481 1482 1484 1486 1488 1490 1492 1495 1497 1499 1502 1503 1505 1508 1510 1512 1514 1516 1517 1518 1519 1520 1520 1521 1522
1483 1482 1481 1480 1480 1479 1479 1479 1479 1480 1480 1481 1481 1482 1483 1485 1487 1488 1490 1492 1494 1496 1498 1500 1502 1504 1507 1509 1510 1512 1513 1515 1516 1517 1518 1519 1519 1520
1484 1483 1482 1482 1481 1480 1480 1480 1481 1481 1482 1482 1482 1483 1484 1486 1487 1489 1490 1492 1494 1495 1497 1499 1501 1503 1505 1507 1509 1510 1512 1513 1514 1515 1516 1517 1518 1518
1484 1484 1483 1483 1482 1482 1482 1481 1482 1482 1482 1483 1483 1484 1485 1486 1487 1489 1490 1492 1494 1495 1496 1498 1500 1501 1503 1505 1507 1508 1509 1511 1512 1513 1514 1515 1516 1516
1484 1484 1483 1483 1482 1482 1482 1482 1482 1482 1483 1483 1484 1484 1485 1486 1487 1488 1490 1492 1493 1494 1495 1497 1498 1500 1502 1503 1505 1506 1507 1508 1509 1510 1511 1513 1514 1514
1483 1483 1482 1482 1481 1481 1481 1481 1481 1481 1482 1482 1483 1484 1485 1486 1487 1488 1489 1490 1491 1493 1494 1495 1497 1499 1500 1501 1501 1503 1504 1505 1507 1508 1509 1510 1511 1512
1481 1480 1480 1480 1479 1479 1479 1479 1479 1480 1480 1481 1481 1482 1483 1484 1485 1486 1487 1489 1490 1491 1492 1493 1495 1497 1498 1500 1500 1500 1501 1502 1504 1505 1506 1506 1507 1507
1478 1477 1477 1477 1476 1476 1476 1477 1477 1477 1478 1478 1479 1480 1481 1482 1483 1484 1485 1486 1488 1489 1490 1491 1492 1493 1495 1496 1497 1498 1498 1499 1500 1501 1503 1503 1504 1504
1473 1473 1473 1472 1472 1472 1473 1473 1473 1474 1474 1475 1476 1477 1478 1479 1480 1481 1483 1484 1485 1487 1488 1489 1489 1490 1492 1494 1495 1496 1496 1496 1496 1497 1498 1499 1500 1501
1468 1467 1468 1467 1468 1468 1468 1469 1469 1470 1470 1471 1472 1473 1474 1475 1477 1478 1480 1481 1482 1483 1485 1486 1487 1488 1489 1491 1492 1493 1493 1493 1494 1494 1494 1495 1495 1495